Regional Weather Roundup
Issued by NWS

Home | Current Version | Previous Version | Text Only | Print | Product List | Glossary Off
Versions: 1 2 3 4 5 6 7 8 9 10 11 12 13 14 15 16 17 18 19 20 21 22 23 24 25 26 27 28 29 30 31 32 33 34 35 36 37 38 39 40 41 42 43 44 45 46 47 48 49 50

000
ASUS43 KBIS 021310
RWRND

NORTH DAKOTA REGIONAL WEATHER ROUNDUP
NATIONAL WEATHER SERVICE BISMARCK ND
800 AM CDT THU OCT 02 2014

NOTE: "FAIR" INDICATES FEW OR NO CLOUDS BELOW 12,000 FEET WITH NO
SIGNIFICANT WEATHER AND/OR OBSTRUCTIONS TO VISIBILITY.


NDZ001>003-009>011-017-021400-
NORTHWEST NORTH DAKOTA

CITY           SKY/WX    TMP DP  RH WIND       PRES   REMARKS
WILLISTON      MOCLDY    43  39  86 SW10      29.81F
MINOT          PTCLDY    46  40  79 SW9       29.80F
MINOT AFB      CLOUDY    46  43  89 SW12      29.79F
$$

NDZ018>021-031>035-040>046-021400-
SOUTHWEST NORTH DAKOTA

CITY           SKY/WX    TMP DP  RH WIND       PRES   REMARKS
BISMARCK       CLEAR     42  41  96 SW7       29.89S
DICKINSON      CLOUDY    43  38  82 S10       29.86F
GARRISON         N/A     44  42  93 W6        29.84F
HETTINGER ARPT MOCLDY    38  35  89 CALM      29.93S
$$

NDZ004>008-012>016-024-026-027-054-021400-
NORTHEAST NORTH DAKOTA

CITY           SKY/WX    TMP DP  RH WIND       PRES   REMARKS
GRAND FORKS    CLOUDY    50  47  89 SW5       29.81S
GRND FRKS AFB  CLOUDY    48  48  99 SW3       29.82S
DEVILS LAKE    CLEAR     46  39  76 W8        29.81R
$$

NDZ022-023-025-028>030-036>039-047>053-021400-
SOUTHEAST NORTH DAKOTA

CITY           SKY/WX    TMP DP  RH WIND       PRES   REMARKS
FARGO          MOCLDY    49  46  90 SW5       29.85R
JAMESTOWN      PTCLDY    45  43  93 W5        29.85F
$$



USA.gov is the U.S. government's official web portal to all federal, state and local government web resources and services.